This is the latest recevied weather packets stored in our database for station/object LX0APE-4. If no packets are shown the sender has not sent any weather packets the latest 10 day(s).
| Time | Temp. | Humidity | Pressure | Rain* | Wind** | Luminosity | Snow |
|---|---|---|---|---|---|---|---|
| 1777666621 | 18.89° C | 26% | 5019.3 hPa | 0 mm | - | - | - |
| 1777666321 | 18.89° C | 26% | 5019.3 hPa | 0 mm | - | - | - |
| 1777666021 | 18.89° C | 25% | 5019.3 hPa | 0 mm | - | - | - |
| 1777665721 | 18.89° C | 25% | 5019.2 hPa | 0 mm | - | - | - |
| 1777665421 | 19.44° C | 25% | 5019.1 hPa | 0 mm | - | - | - |
| 1777665121 | 19.44° C | 25% | 5019.1 hPa | 0 mm | - | - | - |
| 1777664821 | 19.44° C | 25% | 5019 hPa | 0 mm | - | - | - |
| 1777664521 | 20° C | 24% | 5019.2 hPa | 0 mm | - | - | - |
| 1777664221 | 19.44° C | 24% | 5019.2 hPa | 0 mm | - | - | - |
| 1777663921 | 20° C | 23% | 5019.2 hPa | 0 mm | - | - | - |
| 1777663621 | 20° C | 23% | 5019.1 hPa | 0 mm | - | - | - |
| 1777663321 | 20° C | 23% | 5019.1 hPa | 0 mm | - | - | - |
| 1777663021 | 20.56° C | 23% | 5019.1 hPa | 0 mm | - | - | - |
| 1777662721 | 20.56° C | 23% | 5019 hPa | 0 mm | - | - | - |
| 1777662421 | 20.56° C | 22% | 5019.1 hPa | 0 mm | - | - | - |
| 1777662121 | 21.11° C | 22% | 5019.2 hPa | 0 mm | - | - | - |
| 1777661821 | 21.67° C | 21% | 5019.1 hPa | 0 mm | - | - | - |
| 1777661521 | 21.67° C | 21% | 5019.1 hPa | 0 mm | - | - | - |
| 1777661221 | 22.22° C | 19% | 5019.2 hPa | 0 mm | - | - | - |
| 1777660921 | 22.78° C | 19% | 5019.2 hPa | 0 mm | - | - | - |
| 1777660621 | 23.89° C | 18% | 5019.1 hPa | 0 mm | - | - | - |
| 1777660321 | 25° C | 17% | 5019.1 hPa | 0 mm | - | - | - |
| 1777660021 | 25.56° C | 17% | 5019.2 hPa | 0 mm | - | - | - |
| 1777659721 | 25.56° C | 17% | 5019.1 hPa | 0 mm | - | - | - |
| 1777659421 | 25.56° C | 17% | 5019.1 hPa | 0 mm | - | - | - |
* Rain latest hour (hover to see other rain measurements)
** Current wind speed in m/s (hover to see current wind gust speed)